This demonstration page uses our WeatherBlox Daily Observations layout. Learn more.

Left ArrowRight Arrow

39.51506, -84.39828

Hourly Observations for August 21, 2020

Temp ( °F °C ) Dew Point ( °F °C ) Humidity (%) Winds ( mph kmh ) Pressure ( in mb ) Visibility ( mi km ) Precip ( " mm )
12:15 am 00:15 Clear 60 15.3 58 14.6 96 96 Calm 29.98 1015 10 16.0934 0 0
12:35 am 00:35 Clear 60 15.4 58 14.4 94 94 N 3 6 29.98 1015 10 16.0934 0 0
12:55 am 00:55 Clear 60 15.3 58 14.4 94 94 Calm 29.98 1015 10 16.0934 0 0
1:15 am 01:15 Clear 60 15.3 58 14.5 95 95 Calm 29.98 1015 10 16.0934 0 0
1:35 am 01:35 Clear 60 15.3 58 14.4 94 94 Calm 29.97 1015 10 16.0934 0 0
1:55 am 01:55 Clear 59 15.1 58 14.5 96 96 Calm 29.97 1015 10 16.0934 0 0
2:15 am 02:15 Clear 59 15.1 58 14.5 96 96 Calm 29.97 1015 10 16.0934 0 0
2:35 am 02:35 Clear 58 14.6 57 14.1 97 97 Calm 29.97 1015 10 16.0934 0 0
2:55 am 02:55 Clear 59 15 58 14.7 98 98 Calm 29.97 1015 10 16.0934 0 0
3:15 am 03:15 Clear 60 15.5 58 14.3 93 93 NNE 3 6 29.97 1015 10 16.0934 0 0
3:35 am 03:35 Clear 60 15.5 59 14.8 96 96 Calm 29.98 1015 10 16.0934 0 0
3:55 am 03:55 Clear 58 14.6 57 14 96 96 Calm 29.98 1015 10 16.0934 0 0
4:15 am 04:15 Clear 60 15.4 58 14.6 95 95 Calm 29.98 1015 10 16.0934 0 0
4:35 am 04:35 Clear 59 15.2 57 13.9 92 92 N 5 7 29.98 1015 10 16.0934 0 0
4:55 am 04:55 Clear 59 14.9 57 14.1 95 95 Calm 29.99 1015 10 16.0934 0 0
5:15 am 05:15 Clear 59 15.2 57 13.7 91 91 NNE 3 6 29.99 1015 10 16.0934 0 0
5:35 am 05:35 Clear 58 14.7 56 13.6 93 93 NNE 5 7 29.98 1015 10 16.0934 0 0
5:55 am 05:55 Clear 59 15 57 13.8 93 93 Calm 29.99 1015 10 16.0934 0 0
6:15 am 06:15 Clear 58 14.7 56 13.6 93 93 Calm 29.99 1015 10 16.0934 0 0
6:35 am 06:35 Clear 59 14.8 57 14 95 95 Calm 29.99 1015 10 16.0934 0 0
6:55 am 06:55 Clear 57 14 56 13.6 97 97 Calm 29.99 1016 10 16.0934 0 0
7:15 am 07:15 Sunny 57 14.1 57 13.7 97 97 Calm 30 1016 10 16.0934 0 0
7:35 am 07:35 Sunny 57 13.9 56 13.6 98 98 Calm 30.01 1016 10 16.0934 0 0
7:55 am 07:55 Sunny 57 14.1 57 13.7 97 97 Calm 30 1016 10 16.0934 0 0
8:15 am 08:15 Sunny 59 14.8 57 13.9 94 94 Calm 30.01 1016 10 16.0934 0 0
8:35 am 08:35 Mostly Cloudy with Mist and Fog 61 15.9 58 14.4 91 91 Calm 30 1016 0.75 1.207005 0 0
8:55 am 08:55 Sunny 63 17.3 60 15.3 88 88 Calm 30 1016 10 16.0934 0 0
9:15 am 09:15 Sunny 67 19.2 60 15.8 81 81 Calm 30 1016 10 16.0934 0 0
9:35 am 09:35 Sunny 69 20.4 60 15.5 74 74 Calm 29.99 1016 10 16.0934 0 0
9:55 am 09:55 Sunny 71 21.8 59 15.2 66 66 ENE 5 7 29.99 1016 10 16.0934 0 0
10:15 am 10:15 Sunny 73 22.6 60 15.3 64 64 NNE 3 6 29.99 1016 10 16.0934 0 0
10:35 am 10:35 Sunny 75 23.7 60 15.3 59 59 NE 5 7 29.99 1015 10 16.0934 0 0
10:55 am 10:55 Sunny 76 24.5 60 15.7 58 58 NNE 5 7 29.98 1015 10 16.0934 0 0
11:15 am 11:15 Sunny 77 25.1 60 15.6 56 56 NNE 6 9 29.97 1015 10 16.0934 0 0
11:35 am 11:35 Sunny 78 25.6 60 15.6 54 54 NNE 6 9 29.97 1015 10 16.0934 0 0
11:55 am 11:55 Sunny 79 26.3 60 15.7 52 52 NNE 5 7 29.97 1015 10 16.0934 0 0
12:15 pm 12:15 Sunny 80 26.5 59 14.9 49 49 Calm 29.97 1015 10 16.0934 0 0
12:35 pm 12:35 Sunny 79 26.3 59 15.1 50 50 NE 6 9 29.96 1015 10 16.0934 0 0
12:55 pm 12:55 Sunny 81 27.2 59 14.9 47 47 Calm 29.96 1014 10 16.0934 0 0
1:15 pm 13:15 Sunny 81 27.2 59 15 47 47 Calm 29.96 1014 10 16.0934 0 0
1:35 pm 13:35 Sunny 82 27.9 59 15.1 46 46 E 7 11 29.95 1014 10 16.0934 0 0
1:55 pm 13:55 Sunny 83 28.4 60 15.7 46 46 E 7 11 29.95 1014 10 16.0934 0 0
2:15 pm 14:15 Sunny 82 27.5 60 15.3 47 47 NE 3 6 29.94 1014 10 16.0934 0 0
2:35 pm 14:35 Sunny 83 28.4 61 16.3 48 48 SSE 6 9 29.94 1014 10 16.0934 0 0
2:55 pm 14:55 Sunny 82 27.9 63 17 52 52 ENE 5 7 29.93 1013 10 16.0934 0 0
3:15 pm 15:15 Sunny 83 28.3 62 16.9 50 50 Calm 29.92 1013 10 16.0934 0 0
3:35 pm 15:35 Sunny 82 28 62 16.9 51 51 Calm 29.92 1013 10 16.0934 0 0
3:55 pm 15:55 Sunny 84 28.7 63 17.3 50 50 NNE 3 6 29.91 1013 10 16.0934 0 0
4:15 pm 16:15 Sunny 83 28.1 62 16.4 49 49 N 3 6 29.91 1013 10 16.0934 0 0
4:35 pm 16:35 Sunny 83 28.5 62 16.6 49 49 NNW 5 7 29.91 1013 10 16.0934 0 0
4:55 pm 16:55 Sunny 83 28.3 63 17 50 50 N 3 6 29.91 1013 10 16.0934 0 0
5:15 pm 17:15 Sunny 84 28.8 63 17.2 50 50 NNW 3 6 29.89 1012 10 16.0934 0 0
5:35 pm 17:35 Sunny 84 29 62 16.7 47 47 NNE 5 7 29.89 1012 10 16.0934 0 0
5:55 pm 17:55 Sunny 82 28 63 17 51 51 NE 6 9 29.9 1012 10 16.0934 0 0
6:15 pm 18:15 Sunny 82 27.7 62 16.6 51 51 NNE 5 7 29.9 1012 10 16.0934 0 0
6:35 pm 18:35 Sunny 82 28 62 16.6 50 50 N 5 7 29.9 1012 10 16.0934 0 0
6:55 pm 18:55 Sunny 83 28.1 62 16.5 49 49 N 6 9 29.9 1012 10 16.0934 0 0
7:15 pm 19:15 Sunny 81 27.3 63 17.1 54 54 N 6 9 29.9 1012 10 16.0934 0 0
7:35 pm 19:35 Partly Cloudy 80 26.7 64 17.6 57 57 NNE 3 6 29.9 1013 10 16.0934 0 0
7:55 pm 19:55 Partly Cloudy 79 26.1 64 17.5 59 59 Calm 29.91 1013 10 16.0934 0 0
8:15 pm 20:15 Partly Cloudy 78 25.4 64 17.8 63 63 Calm 29.91 1013 10 16.0934 0 0
8:35 pm 20:35 Clear 74 23.5 66 19.1 76 76 Calm 29.92 1013 10 16.0934 0 0
8:55 pm 20:55 Clear 71 21.9 66 19.1 84 84 Calm 29.93 1014 10 16.0934 0 0
9:15 pm 21:15 Clear 71 21.6 67 19.4 87 87 Calm 29.93 1014 10 16.0934 0 0
9:35 pm 21:35 Clear 70 21.2 66 19 87 87 Calm 29.94 1014 10 16.0934 0 0
9:55 pm 21:55 Clear 69 20.8 66 19.1 90 90 Calm 29.94 1014 10 16.0934 0 0
10:15 pm 22:15 Clear 69 20.3 66 19 92 92 Calm 29.94 1014 10 16.0934 0 0
10:35 pm 22:35 Clear 67 19.7 66 18.8 95 95 Calm 29.95 1014 10 16.0934 0 0
10:55 pm 22:55 Clear 68 19.9 65 18.6 92 92 Calm 29.94 1014 10 16.0934 0 0
11:15 pm 23:15 Clear 67 19.3 65 18.4 95 95 Calm 29.95 1014 10 16.0934 0 0
11:35 pm 23:35 Clear with Mist and Fog 67 19.2 65 18.4 95 95 Calm 29.95 1014 4 6.43736 0 0
11:55 pm 23:55 Clear 65 18.6 64 18 96 96 Calm 29.95 1014 10 16.0934 0 0

Powered by AerisWeather